Time,TemperatureF,DewpointF,PressureIn,WindDirection,WindDirectionDegrees,WindSpeedMPH,WindSpeedGustMPH,Humidity,HourlyPrecipIn,Conditions,Clouds,dailyrainin,SoftwareType,DateUTC
2013-04-09 07:02:00,35.0,34.0,29.87,SSW,209,0.0,0.0,96,0.08,,,0.29,,2013-04-09 11:02:00,
2013-04-09 07:12:00,36.0,35.0,29.86,SSW,209,0.0,0.0,96,0.05,,,0.30,,2013-04-09 11:12:00,
2013-04-09 07:22:00,36.0,35.0,29.86,SSW,209,0.0,0.0,96,0.05,,,0.30,,2013-04-09 11:22:00,
2013-04-09 07:32:00,36.0,35.0,29.86,SSW,209,0.0,0.0,96,0.05,,,0.30,,2013-04-09 11:32:00,
2013-04-09 07:42:00,36.0,35.0,29.86,SSW,209,0.0,0.0,96,0.05,,,0.30,,2013-04-09 11:42:00,
2013-04-09 07:52:00,36.0,35.0,29.86,SSW,209,0.0,0.0,96,0.05,,,0.30,,2013-04-09 11:52:00,
2013-04-09 11:02:00,39.0,38.0,29.81,SSW,206,0.0,0.0,97,0.00,,,0.33,,2013-04-09 15:02:00,
2013-04-09 11:13:00,39.0,38.0,29.81,SSW,206,0.0,0.0,97,0.00,,,0.33,,2013-04-09 15:13:00,
2013-04-09 11:23:00,39.0,38.0,29.81,SSW,206,0.0,0.0,97,0.00,,,0.33,,2013-04-09 15:23:00,
2013-04-09 11:34:00,39.0,38.0,29.81,SSW,206,0.0,0.0,97,0.00,,,0.33,,2013-04-09 15:34:00,
2013-04-09 21:02:00,38.0,36.0,29.88,NW,319,1.0,8.0,91,0.00,,,0.33,,2013-04-10 01:02:00,
2013-04-09 21:12:00,38.0,36.0,29.88,NW,319,1.0,8.0,91,0.00,,,0.33,,2013-04-10 01:12:00,
2013-04-09 21:23:00,38.0,36.0,29.88,NW,319,1.0,8.0,91,0.00,,,0.33,,2013-04-10 01:23:00,
2013-04-09 21:32:00,39.0,36.0,29.90,West,281,0.0,2.0,90,0.00,,,0.33,,2013-04-10 01:32:00,
2013-04-09 21:42:00,39.0,36.0,29.90,West,281,0.0,2.0,90,0.00,,,0.33,,2013-04-10 01:42:00,
2013-04-09 21:53:00,39.0,36.0,29.90,SW,236,0.0,0.0,88,0.00,,,0.33,,2013-04-10 01:53:00,
2013-04-09 22:02:00,39.0,36.0,29.90,SW,236,0.0,0.0,88,0.00,,,0.33,,2013-04-10 02:02:00,
2013-04-09 22:13:00,39.0,36.0,29.90,SW,236,0.0,0.0,88,0.00,,,0.33,,2013-04-10 02:13:00,
2013-04-09 22:22:00,39.0,36.0,29.90,SW,236,0.0,0.0,88,0.00,,,0.33,,2013-04-10 02:22:00,
2013-04-09 22:32:00,39.0,36.0,29.90,SW,236,0.0,0.0,88,0.00,,,0.33,,2013-04-10 02:32:00,
2013-04-09 23:33:00,37.0,35.0,29.88,West,281,0.0,0.0,93,0.00,,,0.33,,2013-04-10 03:33:00,
2013-04-09 23:43:00,37.0,35.0,29.88,West,281,0.0,0.0,93,0.00,,,0.33,,2013-04-10 03:43:00,
2013-04-09 23:53:00,37.0,35.0,29.88,West,281,0.0,0.0,93,0.00,,,0.33,,2013-04-10 03:53:00,